FRS39N EDWG-EDWG

Flight info

Callsign FRS39N
Flight time 0h 18m
Altitude 1000
Route EDD----- EDWG DAYLIGHT, CARTS ,VFR , V PLATZRUNDEN
Aircraft C172/L-SDE3/7000

Departure

Time 2026-04-22 15:59
Airport Wangerooge Airport (EDWG)

Arrival

Time 2026-04-22 16:17
Airport Wangerooge Airport (EDWG)
Time Latitude Longitude Altitude Speed Heading
2026-04-22 15:49 53.78760 7.90959 4 ft 0 kts 233°
2026-04-22 15:51 53.78755 7.90937 6 ft 5 kts 255°
2026-04-22 15:52 53.78721 7.90938 9 ft 13 kts 150°
2026-04-22 15:52 53.78645 7.90985 8 ft 11 kts 155°
2026-04-22 15:52 53.78552 7.91050 8 ft 6 kts 162°
2026-04-22 15:52 53.78541 7.91056 9 ft 5 kts 160°
2026-04-22 15:53 53.78351 7.91460 4 ft 12 kts 123°
2026-04-22 15:54 53.78331 7.91584 3 ft 10 kts 96°
2026-04-22 15:54 53.78327 7.91682 3 ft 7 kts 91°
2026-04-22 15:54 53.78323 7.91777 1 ft 10 kts 95°
2026-04-22 15:54 53.78317 7.91910 -1 ft 13 kts 93°
2026-04-22 15:55 53.78311 7.92058 1 ft 12 kts 93°
2026-04-22 15:55 53.78305 7.92195 2 ft 12 kts 95°
2026-04-22 15:55 53.78303 7.92241 3 ft 12 kts 93°
2026-04-22 15:56 53.78289 7.92568 6 ft 4 kts 95°
2026-04-22 15:56 53.78288 7.92579 6 ft 0 kts 97°
2026-04-22 15:56 53.78287 7.92592 6 ft 4 kts 110°
2026-04-22 15:57 53.78263 7.92606 6 ft 5 kts 182°
2026-04-22 15:57 53.78231 7.92576 5 ft 4 kts 256°
2026-04-22 15:57 53.78230 7.92561 5 ft 0 kts 273°
2026-04-22 15:58 53.78238 7.92323 2 ft 46 kts 274°
2026-04-22 15:58 53.78255 7.91851 34 ft 68 kts 273°
2026-04-22 15:58 53.78302 7.90826 358 ft 64 kts 274°
2026-04-22 15:58 53.78327 7.90034 539 ft 73 kts 262°
2026-04-22 15:59 53.78006 7.89360 676 ft 85 kts 201°
2026-04-22 15:59 53.77396 7.89238 786 ft 91 kts 179°
2026-04-22 15:59 53.76841 7.89716 789 ft 98 kts 128°
2026-04-22 15:59 53.76622 7.90849 703 ft 102 kts 100°
2026-04-22 16:00 53.76548 7.91598 745 ft 93 kts 99°
2026-04-22 16:00 53.76469 7.92612 787 ft 85 kts 94°
2026-04-22 16:00 53.76518 7.93929 736 ft 82 kts 71°
2026-04-22 16:00 53.76820 7.94661 736 ft 74 kts 33°
2026-04-22 16:01 53.77286 7.95032 683 ft 74 kts 15°
2026-04-22 16:01 53.77604 7.95128 677 ft 67 kts 355°
2026-04-22 16:01 53.78127 7.94658 545 ft 66 kts 294°
2026-04-22 16:01 53.78204 7.93862 337 ft 72 kts 270°
2026-04-22 16:02 53.78206 7.93003 126 ft 73 kts 278°
2026-04-22 16:02 53.78245 7.92176 3 ft 65 kts 275°
2026-04-22 16:02 53.78273 7.91463 38 ft 63 kts 274°
2026-04-22 16:02 53.78292 7.90782 280 ft 55 kts 266°
2026-04-22 16:03 53.78291 7.90359 400 ft 55 kts 268°
2026-04-22 16:03 53.78156 7.89548 629 ft 57 kts 226°
2026-04-22 16:03 53.77910 7.89367 743 ft 60 kts 184°
2026-04-22 16:03 53.77467 7.89446 839 ft 68 kts 167°
2026-04-22 16:04 53.77110 7.89974 913 ft 74 kts 115°
2026-04-22 16:04 53.76915 7.91117 876 ft 80 kts 101°
2026-04-22 16:04 53.76839 7.91738 869 ft 81 kts 102°
2026-04-22 16:04 53.76675 7.92965 869 ft 79 kts 104°
2026-04-22 16:05 53.76582 7.93555 878 ft 77 kts 105°
2026-04-22 16:05 53.76494 7.94130 869 ft 76 kts 104°
2026-04-22 16:05 53.76574 7.95251 808 ft 73 kts 52°
2026-04-22 16:05 53.76962 7.95778 781 ft 70 kts 22°
2026-04-22 16:06 53.77565 7.96103 766 ft 62 kts 351°
2026-04-22 16:06 53.77938 7.95732 700 ft 68 kts 306°
2026-04-22 16:06 53.78097 7.95256 667 ft 70 kts 289°
2026-04-22 16:06 53.78166 7.94154 446 ft 73 kts 270°
2026-04-22 16:07 53.78199 7.93293 229 ft 74 kts 272°
2026-04-22 16:07 53.78236 7.92426 49 ft 71 kts 274°
2026-04-22 16:07 53.78266 7.91650 19 ft 65 kts 271°
2026-04-22 16:07 53.78272 7.90914 232 ft 63 kts 269°
2026-04-22 16:08 53.78285 7.90427 373 ft 63 kts 273°
2026-04-22 16:08 53.78165 7.89469 601 ft 72 kts 217°
2026-04-22 16:08 53.77823 7.89304 719 ft 76 kts 189°
2026-04-22 16:08 53.77151 7.89543 835 ft 90 kts 136°
2026-04-22 16:09 53.76891 7.90589 833 ft 100 kts 101°
2026-04-22 16:09 53.76771 7.91693 913 ft 94 kts 98°
2026-04-22 16:09 53.76707 7.92427 872 ft 98 kts 98°
2026-04-22 16:09 53.76608 7.93585 736 ft 98 kts 101°
2026-04-22 16:10 53.76501 7.94929 766 ft 84 kts 80°
2026-04-22 16:10 53.76793 7.95756 761 ft 80 kts 36°
2026-04-22 16:10 53.77090 7.96084 780 ft 76 kts 24°
2026-04-22 16:10 53.77722 7.96188 803 ft 75 kts 327°
2026-04-22 16:11 53.78035 7.95506 797 ft 75 kts 290°
2026-04-22 16:11 53.78176 7.94625 627 ft 79 kts 274°
2026-04-22 16:11 53.78194 7.94008 482 ft 80 kts 271°
2026-04-22 16:11 53.78224 7.92744 129 ft 83 kts 275°
2026-04-22 16:12 53.78262 7.91828 2 ft 70 kts 273°
2026-04-22 16:12 53.78275 7.91314 63 ft 64 kts 274°
2026-04-22 16:12 53.78302 7.90375 373 ft 56 kts 271°
2026-04-22 16:12 53.78308 7.89922 479 ft 62 kts 267°
2026-04-22 16:13 53.78293 7.89673 533 ft 64 kts 258°
2026-04-22 16:13 53.77551 7.89026 836 ft 79 kts 173°
2026-04-22 16:13 53.77002 7.89213 941 ft 81 kts 160°
2026-04-22 16:13 53.76739 7.89634 911 ft 83 kts 108°
2026-04-22 16:14 53.76624 7.90568 859 ft 80 kts 94°
2026-04-22 16:14 53.76596 7.91527 808 ft 85 kts 92°
2026-04-22 16:14 53.76587 7.91864 811 ft 84 kts 92°
2026-04-22 16:14 53.76551 7.93149 808 ft 83 kts 93°
2026-04-22 16:15 53.76496 7.95428 771 ft 81 kts 71°
2026-04-22 16:15 53.76990 7.96253 734 ft 76 kts 16°
2026-04-22 16:15 53.77469 7.96415 785 ft 65 kts 345°
2026-04-22 16:16 53.77861 7.96054 772 ft 67 kts 309°
2026-04-22 16:16 53.78089 7.95372 733 ft 64 kts 287°
2026-04-22 16:16 53.78158 7.94628 580 ft 64 kts 273°
2026-04-22 16:16 53.78177 7.94127 461 ft 65 kts 276°
2026-04-22 16:17 53.78210 7.93125 182 ft 63 kts 272°
2026-04-22 16:17 53.78227 7.92643 57 ft 60 kts 272°
2026-04-22 16:17 53.78250 7.92013 -1 ft 47 kts 273°
2026-04-22 16:17 53.78309 7.91075 174 ft 62 kts 270°
2026-04-22 16:18 53.78313 7.90327 381 ft 63 kts 268°
2026-04-22 16:18 53.78303 7.89804 498 ft 68 kts 264°
2026-04-22 16:18 53.78226 7.89341 680 ft 62 kts 236°
2026-04-22 16:18 53.77682 7.88876 804 ft 76 kts 184°
2026-04-22 16:19 53.77198 7.89110 886 ft 71 kts 157°
2026-04-22 16:19 53.76856 7.89742 843 ft 78 kts 108°
2026-04-22 16:19 53.76741 7.90896 848 ft 76 kts 97°
2026-04-22 16:19 53.76694 7.91484 873 ft 76 kts 96°
2026-04-22 16:20 53.76644 7.92384 871 ft 77 kts 93°
2026-04-22 16:20 53.76586 7.93567 846 ft 75 kts 95°
2026-04-22 16:20 53.76549 7.94449 831 ft 75 kts 94°
2026-04-22 16:20 53.76527 7.95026 812 ft 74 kts 92°
2026-04-22 16:21 53.76659 7.95843 789 ft 72 kts 47°
2026-04-22 16:21 53.77043 7.96354 739 ft 71 kts 20°
2026-04-22 16:21 53.77503 7.96590 709 ft 70 kts
2026-04-22 16:21 53.77905 7.96333 736 ft 65 kts 303°
2026-04-22 16:22 53.78181 7.94613 620 ft 69 kts 271°
2026-04-22 16:22 53.78190 7.94094 479 ft 65 kts 271°
2026-04-22 16:22 53.78200 7.93339 249 ft 64 kts 270°
2026-04-22 16:23 53.78250 7.91956 7 ft 59 kts 273°
2026-04-22 16:23 53.78293 7.91210 183 ft 64 kts 275°
2026-04-22 16:23 53.78368 7.90457 404 ft 63 kts 280°
2026-04-22 16:24 53.78234 7.89812 537 ft 70 kts 216°
2026-04-22 16:24 53.77296 7.89732 795 ft 73 kts 166°
2026-04-22 16:24 53.76924 7.90287 853 ft 76 kts 118°
2026-04-22 16:25 53.76795 7.91129 910 ft 78 kts 99°
2026-04-22 16:25 53.76639 7.93101 872 ft 89 kts 99°
2026-04-22 16:25 53.76531 7.94128 842 ft 87 kts 101°
2026-04-22 16:26 53.76506 7.95087 830 ft 79 kts 67°
2026-04-22 16:26 53.76831 7.95790 791 ft 73 kts 27°
2026-04-22 16:26 53.77286 7.96121 747 ft 70 kts 10°
2026-04-22 16:26 53.77753 7.96235 754 ft 66 kts 352°
2026-04-22 16:27 53.78077 7.95844 780 ft 61 kts 288°
2026-04-22 16:27 53.78165 7.95126 669 ft 63 kts 275°
2026-04-22 16:27 53.78170 7.94886 622 ft 64 kts 270°
2026-04-22 16:27 53.78186 7.93656 279 ft 60 kts 271°
2026-04-22 16:28 53.78202 7.93187 154 ft 58 kts 272°
2026-04-22 16:28 53.78239 7.92352 3 ft 47 kts 269°
2026-04-22 16:28 53.78253 7.91882 -1 ft 24 kts 274°
2026-04-22 16:28 53.78278 7.91749 -1 ft 9 kts 347°
2026-04-22 16:29 53.78300 7.91749 0 ft 0 kts
2026-04-22 16:29 53.78301 7.91749 0 ft 1 kts
2026-04-22 16:29 53.78323 7.91732 2 ft 7 kts 281°
2026-04-22 16:29 53.78326 7.91648 3 ft 8 kts 274°
2026-04-22 16:30 53.78328 7.91614 3 ft 9 kts 274°
2026-04-22 16:30 53.78362 7.91426 5 ft 10 kts 306°
2026-04-22 16:30 53.78400 7.91335 7 ft 10 kts 307°
2026-04-22 16:30 53.78432 7.91263 7 ft 12 kts 307°
2026-04-22 16:31 53.78497 7.91111 9 ft 10 kts 304°
2026-04-22 16:31 53.78552 7.91046 8 ft 11 kts 341°
2026-04-22 16:31 53.78642 7.90986 8 ft 11 kts 340°
2026-04-22 16:31 53.78703 7.90946 9 ft 9 kts 338°
2026-04-22 16:32 53.78755 7.90911 7 ft 10 kts 333°
2026-04-22 16:32 53.78779 7.90883 6 ft 1 kts 321°
2026-04-22 16:32 53.78791 7.90875 5 ft 0 kts 12°
2026-04-22 16:32 53.78794 7.90877 6 ft 0 kts 32°